Concordia, KS

1:04 PM CDT on May 27, 2017 (GMT -0500)
Blosser Municipal

Weather History for KCNK - September, 2012

Change the Weather History Date:

Thursday, September 13, 2012

  Actual Average Record
Temperature  
Mean Temperature 57 °F 69 °F  
Max Temperature 63 °F 81 °F 103 °F (1911)
Min Temperature 50 °F 57 °F 33 °F (1890)
Degree Days  
Heating Degree Days 8 2  
Month to date heating degree days 9 12  
Since 1 July heating degree days 9 15  
Cooling Degree Days 0 6  
Month to date cooling degree days 104 98  
Year to date cooling degree days 1626 1264  
Growing Degree Days 7 (Base 50)    
Moisture  
Dew Point 50 °F    
Average Humidity 76    
Maximum Humidity 96    
Minimum Humidity 56    
Precipitation  
Precipitation 0.41 in 0.10 in 1.66 in (2002)
Month to date precipitation 1.04 1.26  
Year to date precipitation 19.29 22.36  
Snow  
Snow 0.00 in 0.00 in T in (1928)
Month to date snowfall 0.0 0.0  
Year to date snowfall 5.8 13.7  
Since 1 July snowfall 0.0 0.0  
Snow Depth 0.00 in    
Sea Level Pressure  
Sea Level Pressure 30.34 in    
Wind  
Wind Speed 9 mph (NNE)    
Max Wind Speed 21 mph    
Max Gust Speed 28 mph    
Visibility 9 miles    
Events Rain    
T = Trace of Precipitation, MM = Missing Value Source: NWS Daily Summary

Daily Weather History Graph

Daily Weather History Graph

Search for Another Location

Airport or City:

Trip Planner

Search our weather history database for the weather conditions in past years. The results will help you decide how hot, cold, wet, or windy it might be!

Date:

Astronomy

Sep. 13, 2012 Rise Set
Actual Time 7:10 AM CDT 7:41 PM CDT
Civil Twilight 6:43 AM CDT 8:08 PM CDT
Nautical Twilight 6:11 AM CDT 8:40 PM CDT
Astronomical Twilight 5:38 AM CDT 9:12 PM CDT
Moon 4:31 AM CDT (9/13) 6:04 PM CDT (9/13)
Length of Visible Light 13h 25m
Length of Day
12h 31m
Waning Crescent, 7% of the Moon is Illuminated
Sep 13
Waning Crescent
Sep 15
New
Sep 22
First Quarter
Sep 29
Full
Oct 8
Last Quarter

Hourly Weather History & Observations

Time (CDT) Temp. Dew Point Humidity Pressure Visibility Wind Dir Wind Speed Gust Speed Precip Events Conditions
12:31 AM 55.4 °F 53.6 °F 94% 30.21 in 9.0 mi NNE 16.1 mph 21.9 mph 0.02 in Rain Light Rain
12:38 AM 55.4 °F 53.6 °F 94% 30.22 in 6.0 mi NE 13.8 mph 23.0 mph 0.03 in Rain Rain
12:55 AM 55.9 °F 54.0 °F 93% 30.19 in 8.0 mi NNE 15.0 mph 23.0 mph 0.04 in Rain Light Rain
1:02 AM 55.4 °F 53.6 °F 94% 30.23 in 4.0 mi NNE 13.8 mph - 0.03 in Rain Heavy Rain
1:35 AM 55.4 °F 53.6 °F 94% 30.26 in 4.0 mi North 11.5 mph 20.7 mph 0.15 in Rain Rain
1:45 AM 55.4 °F 53.6 °F 94% 30.22 in 3.0 mi NNE 20.7 mph 27.6 mph 0.20 in Rain Heavy Rain
1:55 AM 55.0 °F 54.0 °F 96% 30.22 in 4.0 mi North 12.7 mph 27.6 mph 0.24 in Rain Rain
2:36 AM 53.6 °F 53.6 °F 100% 30.26 in 9.0 mi NNE 15.0 mph 24.2 mph 0.06 in Rain Light Rain
2:46 AM 53.6 °F 51.8 °F 94% 30.26 in 8.0 mi NNE 20.7 mph 27.6 mph 0.07 in Rain Light Rain
2:55 AM 53.1 °F 51.1 °F 93% 30.24 in 8.0 mi NNE 19.6 mph 26.5 mph 0.08 in Rain Light Rain
2:58 AM 53.6 °F 51.8 °F 94% 30.27 in 8.0 mi NNE 16.1 mph 24.2 mph 0.00 in Rain Light Rain
3:55 AM 52.0 °F 50.0 °F 93% 30.25 in 10.0 mi NE 12.7 mph 24.2 mph 0.08 in Rain Light Rain
4:55 AM 52.0 °F 48.9 °F 89% 30.27 in 10.0 mi NNE 11.5 mph - 0.01 in Rain Light Rain
5:55 AM 52.0 °F 50.0 °F 93% 30.29 in 10.0 mi North 11.5 mph - 0.00 in   Overcast
6:55 AM 52.0 °F 48.9 °F 89% 30.32 in 10.0 mi NNE 10.4 mph - 0.00 in Rain Light Rain
7:30 AM 51.8 °F 48.2 °F 88% 30.35 in 10.0 mi North 9.2 mph - 0.00 in Rain Light Rain
7:55 AM 51.1 °F 48.0 °F 89% 30.35 in 10.0 mi NNE 13.8 mph - 0.01 in Rain Light Rain
8:10 AM 51.8 °F 48.2 °F 88% 30.36 in 10.0 mi NNE 11.5 mph - 0.00 in   Mostly Cloudy
8:30 AM 51.8 °F 48.2 °F 88% 30.37 in 10.0 mi NNE 11.5 mph - 0.00 in   Mostly Cloudy
8:55 AM 51.1 °F 48.9 °F 92% 30.39 in 10.0 mi North 8.1 mph - 0.00 in   Mostly Cloudy
9:42 AM 51.8 °F 48.2 °F 88% 30.40 in 10.0 mi NNE 6.9 mph - N/A   Scattered Clouds
9:55 AM 51.1 °F 48.0 °F 89% 30.40 in 10.0 mi NNE 12.7 mph - N/A   Mostly Cloudy
10:12 AM 51.8 °F 48.2 °F 88% 30.40 in 10.0 mi North 13.8 mph - N/A   Overcast
10:30 AM 51.8 °F 48.2 °F 88% 30.40 in 10.0 mi NNE 10.4 mph - N/A   Overcast
10:55 AM 53.1 °F 48.9 °F 86% 30.41 in 10.0 mi NNE 11.5 mph - N/A   Mostly Cloudy
11:47 AM 55.4 °F 48.2 °F 77% 30.42 in 10.0 mi NNE 10.4 mph 20.7 mph N/A   Mostly Cloudy
11:55 AM 55.0 °F 48.9 °F 80% 30.42 in 10.0 mi NNE 15.0 mph - N/A   Scattered Clouds
12:55 PM 57.9 °F 48.9 °F 72% 30.41 in 10.0 mi NNE 12.7 mph - N/A   Partly Cloudy
1:55 PM 60.1 °F 48.9 °F 67% 30.40 in 10.0 mi NNE 11.5 mph - N/A   Clear
2:55 PM 62.1 °F 46.9 °F 58% 30.39 in 10.0 mi NNE 13.8 mph 18.4 mph N/A   Clear
3:55 PM 63.0 °F 46.9 °F 56% 30.38 in 10.0 mi NNE 11.5 mph - N/A   Clear
4:55 PM 62.1 °F 46.9 °F 58% 30.38 in 10.0 mi NNE 10.4 mph - N/A   Clear
5:55 PM 62.1 °F 48.0 °F 60% 30.38 in 10.0 mi NE 8.1 mph - N/A   Clear
6:55 PM 60.1 °F 48.9 °F 67% 30.38 in 10.0 mi ENE 3.5 mph - N/A   Clear
7:55 PM 57.9 °F 50.0 °F 75% 30.38 in 10.0 mi Calm Calm - N/A   Clear
8:55 PM 55.0 °F 48.9 °F 80% 30.40 in 10.0 mi Calm Calm - N/A   Clear
9:55 PM 54.0 °F 48.9 °F 83% 30.41 in 10.0 mi Calm Calm - N/A   Clear
10:55 PM 55.0 °F 48.0 °F 77% 30.42 in 10.0 mi Calm Calm - N/A   Clear
11:55 PM 50.0 °F 46.9 °F 89% 30.43 in 10.0 mi Calm Calm - N/A   Clear